Willmar, MN

12:59 PM CST on December 10, 2016 (GMT -0600)
Willmar | | Change Station

Elev 1188 ft 45.15 °N, 95.00 °W | Updated 4 minutes ago

Partly Cloudy
Partly Cloudy
6.8 °F
Feels Like 7 °F
N
0.0
Wind Variable Wind from WSW
Gusts 0.0 mph

Today
High -- | Low -- °F
--% Chance of Precip.
Yesterday
High -- | Low -- °F
Precip. -- in
Pressure 30.35 in
Visibility 1.5 miles
Clouds Overcast 700 ft
Windchill 7 °F
Dew Point 3 °F
Humidity 83%
Rainfall 0.00 in
Snow Depth Not available.
7:48 AM 4:38 PM
Waxing Gibbous, 85% visible
METAR KBDH 101855Z AUTO 00000KT 1 1/2SM -SN OVC007 M13/M16 A3035 RMK AO2
Pressure 30.35 in
Visibility 1.5 miles
Clouds Overcast 700 ft
Windchill 7 °F
Dew Point 3 °F
Humidity 83%
Rainfall 0.00 in
Snow Depth Not available.
7:48 AM 4:38 PM
Waxing Gibbous, 85% visible
METAR KBDH 101855Z AUTO 00000KT 1 1/2SM -SN OVC007 M13/M16 A3035 RMK AO2

10-Day Weather Forecast

Almanac

Astronomy

Dec. 10, 2016 Rise Set
Actual Time
Civil Twilight
Nautical Twilight
Astronomical Twilight
Moon
Length of Visible Light
Length of Day
Tomorrow will be .
, % of the Moon is Illuminated

Today's Extremes

State Highs State Lows

Community

WunderPhotos

Upload Photos

1,956,620 photos uploaded!

WunderBlog® & News

Nearby

Air Quality

  Air Quality AQ Index Pollutant
Not available.

Snow Depth

Station Depth Elevation

Earthquake Activity

City Distance Mag. Time & Date
Minimum magnitude displayed is 2.5.

Coastal Water Temperatures

Place Temperature

Stations

Nearby Weather Stations

Station Location Temp. Windchill Dew Point Humidity Wind Precip. Elev Updated Type
                   

Watches & Warnings

There are currently no watches in effect.